Location: *
(48.5226°S, 169.2699°W)
Time: 01:50:59
(UTC+00:00)

Daily predictions for brighter satellites

Satellite Brightness Start Highest point End
(mag) Time Altitude Azimuth Time Altitude Azimuth Time Altitude Azimuth
Cosmos 2322 Rocket 3.9 04:02:00 10° S 04:05:03 14° SSE 04:08:05 10° ESE
SKYMED 2 3.7 04:01:26 10° NNE 04:05:44 56° ESE 04:10:05 10° S
Cosmos 1825 Rocket 4.0 04:01:29 10° NNW 04:05:53 70° WSW 04:10:24 10° S
DMSP B5D2-2 4.4 04:01:49 10° NE 04:06:50 46° ESE 04:11:53 10° S
USA 306 2.9 04:05:03 10° WSW 04:09:18 73° SSE 04:13:31 10° ENE
Lacrosse 4 Rocket 3.0 04:06:27 10° WNW 04:10:18 32° SW 04:14:17 10° SSE
ARIANE 5 R/B 4.1 04:05:35 10° S 04:10:21 36° WSW 04:15:05 10° NW
GENESIS II 4.1 04:08:15 10° SSW 04:12:01 61° SE 04:15:42 10° NE
Cosmos 2369 3.9 04:06:29 10° SSW 04:12:05 49° SE 04:17:36 10° NE
Cosmos 2082 Rocket 3.3 04:07:34 10° NNE 04:12:09 26° ENE 04:16:46 10° SE
RESURS DK-1 3.1 04:09:46 10° SSW 04:13:35 32° SE 04:17:22 10° ENE
USA 307 2.9 04:10:18 10° WSW 04:14:33 71° SSE 04:18:46 10° ENE
Cosmos 1697 Rocket 2.7 04:08:49 10° SSW 04:14:33 79° ESE 04:20:15 10° NNE
USA 215 3.4 04:10:18 10° E 04:16:47 61° SSE 04:23:17 10° SW
H-2A R/B 3.6 04:16:15 10° SE 04:18:46 14° E 04:21:16 10° ENE
CZ-2C R/B 4.5 04:15:13 10° S 04:18:55 23° WSW 04:22:40 10° WNW
Lacrosse 5 2.8 04:18:23 10° WSW 04:23:03 33° S 04:27:33 11° ESE
CZ-4B R/B 3.7 04:19:03 10° SSE 04:23:58 71° WSW 04:28:45 10° NNW
ERBS 3.1 04:25:44 10° SW 04:28:35 30° SSE 04:31:01 13° E
Cosmos 2360 4.3 04:23:35 10° SSW 04:29:24 85° WNW 04:35:07 10° NNE
Cosmos 1340 Rocket 2.8 04:29:16 10° N 04:33:18 72° E 04:37:26 10° SSE
Meteor 1-31 Rocket 3.0 04:34:44 10° SSE 04:38:41 54° E 04:42:34 10° N
BREEZE M DEB (TANK) 3.7 04:37:30 10° N 04:39:00 17° NE 04:40:11 13° ENE
Cosmos 2151 3.3 04:36:59 10° NNE 04:41:09 47° E 04:45:22 10° SSE
Cosmos 1607 4.2 04:37:25 10° NW 04:43:42 75° SW 04:50:09 10° SE
USA 308 2.9 04:41:13 10° WSW 04:45:28 82° NNW 04:49:42 10° NE
SL-16 R/B 3.1 04:42:19 10° SSW 04:47:11 27° SE 04:51:25 13° E
CBERS 1 LM4 rocket 4.5 04:45:44 10° SSE 04:50:32 57° ENE 04:55:23 10° N
Cosmos 1302 Rocket 4.2 04:45:56 10° NNW 04:51:11 74° WSW 04:56:32 10° SSE
COSMOS 2406 3.2 04:47:56 10° NNW 04:53:37 74° ENE 04:59:21 10° SSE
COSMO-SKYMED 1 3.7 04:49:30 10° N 04:53:46 49° W 04:58:06 10° SSW
Landsat 5 3.6 04:51:33 10° NNE 04:55:54 55° ESE 05:00:10 10° S
Cosmos 2173 Rocket 4.1 04:52:34 10° S 04:59:02 89° W 05:05:20 10° N
Cosmos 1782 2.7 04:56:09 10° S 05:00:11 85° ESE 05:04:11 10° N
Cosmos 1833 Rocket 3.1 04:55:51 10° NW 05:01:30 65° WSW 05:07:12 10° SSE
Cosmos 2016 Rocket 4.0 04:55:31 10° S 05:01:47 66° ESE 05:08:03 10° NNE
Cosmos 1354 Rocket 4.2 04:58:27 10° SSW 05:03:37 50° ESE 05:08:44 10° NE
SeaSat 1 4.0 05:00:36 10° SSE 05:04:59 31° SW 05:09:19 10° WNW
USA 305 3.6 05:02:35 10° WSW 05:06:43 52° NW 05:10:48 10° NE
Cosmos 1486 Rocket 4.1 05:01:44 10° SSW 05:07:10 83° WNW 05:12:32 10° NNE
Cosmos 1992 Rocket 3.9 05:02:11 10° NNW 05:07:26 74° ENE 05:12:24 12° SSE
Cosmos 2233 Rocket 4.2 05:01:51 10° S 05:07:55 46° ESE 05:13:58 10° NE
Cosmos 2360 Rocket 3.4 05:04:19 10° S 05:08:37 21° SE 05:09:28 21° SE
Cosmos 1933 4.0 05:04:46 10° SSW 05:08:50 60° W 05:12:50 10° N
SMAP 3.6 05:06:12 16° SE 05:09:32 37° E 05:13:53 10° NNE
Cosmos 2278 3.6 05:04:14 10° SSW 05:09:58 70° ESE 05:15:37 10° NE
Cosmos 1939 Rocket 2.7 05:06:03 10° SSE 05:09:59 70° ENE 05:13:53 10° N
Lacrosse 5 rocket 2.3 05:07:56 10° SW 05:11:34 29° SSE 05:12:32 26° SE
Cosmos 1864 Rocket 4.4 05:09:25 10° S 05:15:39 77° E 05:21:50 10° NNE
Cosmos 1151 Rocket 3.4 05:12:32 10° S 05:16:49 43° ESE 05:21:00 10° NNE
Meteor PRIRODA 3.8 05:16:58 29° SE 05:18:35 50° E 05:22:12 10° N
Cosmos 1076 Rocket 4.3 05:15:23 10° NNW 05:19:41 53° WSW 05:24:01 10° S
Meteor 1-27 Rocket 4.4 05:15:54 10° S 05:20:50 31° ESE 05:22:24 27° E
Cosmos 1802 Rocket 4.2 05:14:47 10° S 05:21:18 80° W 05:27:46 10° N
SL-08 R/B 4.4 05:15:17 10° S 05:21:37 77° E 05:27:46 10° NNE
Cosmos 1459 Rocket 4.5 05:16:16 10° SSW 05:22:25 64° W 05:28:36 10° N
Meteor 2-3 Rocket 4.2 05:18:37 10° NNW 05:24:12 63° WSW 05:29:55 10° S
USA 281 3.6 05:21:17 20° SE 05:25:40 43° ENE 05:31:54 10° N
Orbus 7S? 3.0 05:24:33 10° SW 05:28:28 50° SSE 05:28:30 50° SSE
CZ-2D R/B 3.4 05:30:12 46° E 05:30:21 46° E 05:34:04 10° N
ARGOS 3.7 05:30:54 33° E 05:31:25 34° E 05:36:18 10° NNE
Cosmos 1812 3.4 05:28:20 10° SSW 05:32:10 56° W 05:35:57 10° N
CZ-4B R/B 2.6 05:34:48 49° SE 05:35:35 65° ENE 05:39:27 10° N
Cosmos 1503 Rocket 4.1 05:31:49 10° SSW 05:37:05 77° WNW 05:42:16 10° NNE
SJ 16-02 1.3 05:32:47 10° SSW 05:37:15 64° ESE 05:39:38 26° NE
Cosmos 1980 Rocket 3.2 05:35:16 10° SW 05:40:39 46° WNW 05:46:00 10° N
Meteor 2-6 Rocket 4.1 05:35:08 10° SSW 05:40:50 89° ESE 05:46:20 10° N
CZ-4C R/B 3.0 05:41:35 10° N 05:44:51 74° W 05:48:15 10° SSW
H-2A R/B 3.8 05:52:26 21° S 05:52:26 21° S 05:54:08 10° S
Cosmos 2322 Rocket 2.3 05:44:57 10° SSW 05:50:33 51° SE 05:51:24 47° E
RESURS DK-1 4.2 05:47:48 10° SW 05:51:34 32° WNW 05:55:17 10° N
Cosmos 1900 4.1 05:48:57 10° SW 05:53:52 78° SE 05:54:56 54° NE
Cosmos 2082 Rocket 2.7 05:50:18 10° NW 05:55:52 58° WSW 05:59:35 21° SSE
H-2A R/B 1.9 05:55:24 20° SSE 05:58:54 84° WSW 06:03:51 10° NNW
USA 215 3.7 05:53:47 12° NE 05:59:48 61° NW 06:06:23 10° WSW
Cosmos 2333 Rocket 3.5 05:56:34 10° SSW 05:59:59 25° SSE 05:59:59 25° SSE
ERBS 3.8 06:00:59 10° WSW 06:03:04 33° W 06:03:04 33° W
Cosmos 1766 Rocket 3.8 06:01:21 10° N 06:04:50 56° N 06:04:50 56° N
Cosmos 1862 4.0 06:01:50 10° NNW 06:05:44 53° WSW 06:07:13 33° SSW
IRIDIUM 104 4.2 06:00:56 10° N 06:06:12 79° E 06:09:31 24° S
Lacrosse 5 1.8 06:01:38 10° SW 06:06:46 66° SSE 06:06:46 66° SSE
Okean 3 Rocket 4.5 06:02:31 10° N 06:05:27 39° NNE 06:05:27 39° NNE
ADEOS 4.3 06:03:51 10° S 06:08:59 51° WSW 06:14:05 10° NW
CORIOLIS 4.2 06:05:10 20° SSE 06:09:08 83° WSW 06:14:38 10° NNW
Cosmos 2219 Rocket 3.8 06:06:14 10° SSW 06:08:49 21° S 06:08:49 21° S
IRIDIUM 114 4.3 06:10:03 10° N 06:15:20 88° W 06:18:41 23° S
Cosmos 2084 3.7 06:11:52 10° NW 06:16:41 78° SW 06:16:41 78° SW
Radarsat Rocket 4.5 06:11:40 16° SSE 06:17:49 74° ENE 06:26:00 10° NNW
IRIDIUM 103 4.4 06:19:14 10° N 06:24:29 74° W 06:27:48 24° S
Cosmos 1867 3.9 06:19:36 10° SW 06:23:54 52° S 06:23:54 52° S
NOAA 6 4.4 06:29:17 41° S 06:30:54 62° WSW 06:35:59 10° NNW
SL-16 R/B 2.5 06:26:05 10° SSW 06:31:47 66° WNW 06:33:22 46° N
Cosmos 2237 4.3 06:32:38 10° SSW 06:37:59 75° WSW 06:37:59 75° WSW
Lacrosse 5 rocket 3.8 06:47:03 10° SW 06:48:05 17° SW 06:48:05 17° SW
Cosmos 2360 Rocket 3.2 06:47:42 10° SSW 06:51:15 40° SSW 06:51:15 40° SSW
USA 281 4.0 07:08:10 37° S 07:10:12 48° SW 07:16:29 10° NW
ARGOS 4.4 07:12:25 39° W 07:12:25 39° W 07:16:47 10° NW
SJ 16-02 4.2 07:12:38 10° WSW 07:15:16 16° W 07:16:45 13° WNW
Cosmos 2322 Rocket 4.0 07:29:24 10° SW 07:33:15 29° W 07:33:15 29° W
Cosmos 2333 Rocket 4.5 07:40:34 10° SSW 07:42:01 18° SW 07:42:01 18° SW
